CDT,Max TemperatureF,Mean TemperatureF,Min TemperatureF,Max Dew PointF,MeanDew PointF,Min DewpointF,Max Humidity, Mean Humidity, Min Humidity, Max Sea Level PressureIn, Mean Sea Level PressureIn, Min Sea Level PressureIn, Max VisibilityMiles, Mean VisibilityMiles, Min VisibilityMiles, Max Wind SpeedMPH, Mean Wind SpeedMPH, Max Gust SpeedMPH,PrecipitationIn, CloudCover, Events, WindDirDegrees
2012-10-1,78,74,71,75,73,68,100,93,81,29.71,29.65,29.61,10,7,0,15,8,29,1.83,8,Fog-Rain,177
2012-10-2,77,70,62,68,63,60,96,82,61,30.01,29.84,29.69,10,10,7,9,2,,0.01,4,,222
2012-10-3,78,69,60,63,60,57,97,81,48,30.18,30.10,30.01,10,9,4,6,1,,0.00,1,,311
2012-10-4,84,72,59,68,61,57,100,85,44,30.27,30.20,30.15,10,6,0,6,1,,0.01,2,Fog-Rain,49
2012-10-5,84,72,60,69,64,60,100,85,51,30.17,30.11,30.01,10,7,0,8,1,,0.01,4,Fog-Rain,64
2012-10-6,87,76,66,70,67,63,100,85,44,30.03,29.98,29.89,10,6,0,5,1,,0.00,3,Fog-Rain,337
2012-10-7,78,69,57,65,60,53,93,77,57,30.06,30.02,29.97,10,10,8,8,3,,0.01,1,,315
2012-10-8,77,65,53,57,54,51,96,74,47,30.11,30.06,30.00,10,10,10,6,2,,0.00,1,,333
2012-10-9,73,64,55,60,56,54,93,81,57,30.14,30.09,30.04,10,10,7,7,1,,0.00,6,Rain,97
2012-10-10,81,68,55,64,57,54,100,88,47,30.17,30.12,30.07,10,5,0,8,1,,0.01,4,Fog,327
2012-10-11,82,68,53,66,56,52,100,87,42,30.26,30.19,30.14,10,5,0,6,0,,0.01,2,Fog,51
2012-10-12,86,70,55,68,60,54,100,77,48,30.26,30.21,30.16,10,8,2,7,1,,0.00,0,,323
2012-10-13,82,72,61,64,62,59,93,76,51,30.29,30.22,30.18,10,10,10,10,3,,0.01,2,Rain,110
2012-10-14,84,74,63,69,64,60,93,78,54,30.19,30.11,30.00,10,10,10,7,4,,0.00,1,,126
2012-10-15,82,72,55,70,64,52,97,80,41,29.99,29.94,29.86,10,9,2,9,2,,0.10,4,Rain-Thunderstorm,298
2012-10-16,75,62,48,59,51,45,93,75,35,29.99,29.93,29.88,10,10,10,7,1,,0.00,0,Rain,21
2012-10-17,80,68,55,58,54,52,93,71,38,29.94,29.87,29.81,10,10,9,8,2,,0.01,0,Rain,174
2012-10-18,77,68,57,66,63,55,94,84,64,29.85,29.81,29.77,10,10,10,12,3,21,0.03,4,Rain,199
2012-10-19,78,61,44,53,43,35,100,65,22,29.89,29.85,29.79,10,10,9,10,2,18,0.01,0,Rain,257
2012-10-20,77,60,44,51,46,42,93,69,32,30.00,29.93,29.87,10,10,10,9,1,16,0.00,0,Rain,294
2012-10-21,80,60,41,55,48,40,97,72,31,30.14,30.09,30.01,10,10,10,7,1,,0.01,0,,30
2012-10-22,82,64,46,59,51,45,93,73,31,30.21,30.14,30.09,10,10,10,8,1,,0.00,0,,105
2012-10-23,82,64,46,62,53,46,100,76,41,30.17,30.11,30.05,10,9,2,5,1,,0.01,0,Rain,97
2012-10-24,84,68,51,62,56,51,100,80,41,30.16,30.09,30.02,10,8,1,7,1,,0.01,0,Rain,52
2012-10-25,86,70,53,65,58,54,100,80,43,30.06,30.01,29.95,10,8,2,7,1,,0.01,1,,68
2012-10-26,84,72,57,64,59,56,93,73,38,30.01,29.92,29.86,10,10,6,9,3,,0.00,0,,46
2012-10-27,72,64,55,59,54,48,93,76,57,29.88,29.84,29.76,10,10,10,10,4,20,0.00,3,Rain,304
2012-10-28,59,54,48,48,45,39,80,70,57,29.93,29.85,29.81,10,10,10,9,6,20,0.00,6,,316
2012-10-29,61,52,43,36,31,26,71,48,30,29.96,29.90,29.84,10,10,10,13,8,29,0.00,0,,307
2012-10-30,64,52,39,32,27,21,65,42,20,29.92,29.86,29.80,10,10,10,15,7,31,0.00,0,,284
2012-10-31,73,60,46,46,39,32,86,54,30,29.99,29.93,29.88,10,10,10,16,6,25,0.00,0,,270